User: anonymous   Login
Location: *
(44.3925°N, 5.4708°E)
Time: 12:02:33
(UTC+00:00)
Language:

SL-24 R/B - Orbit

View from above orbital plane
View from above orbital plane
View from above satellite
View from above satellite

Ground track
Ground track

The orbit data is extracted from the following two-line orbital elements,

1 31123U 07012G   19325.15283803 -.00000006  00000-0  12616-4 0  9997
2 31123  98.0440   8.9198 0312536 178.9097 249.1896 14.12595742649382
Epoch (UTC): 21 November 2019 03:40:05
Eccentricity: 0.0312536
inclination: 98.0440°
perigee height: 624 km
apogee height: 1076 km
right ascension of ascending node: 8.9198°
argument of perigee: 178.9097°
revolutions per day: 14.12595742
mean anomaly at epoch: 249.1896°
orbit number at epoch: 64938

The dashed part of the orbit path shows where the satellite is in the earth's shadow,  

DLR